Flag for U.S.A. Weather past 2 weeks in Marengo, Indiana, U.S.A.

62 °F

Light rain. Fog.

Feels Like: 62 °F
Forecast: 38 / 52 °F
Wind: 10 mph from Southwest

Location: Bowling Green-Warren County Regional Airport

Current Time: Dec 1, 2015 at 2:44:53 AM

Latest Report: Dec 1, 2015 at 2:01 AM

Visibility: 6 mi

Pressure: 29.91 "Hg

Humidity: 93%

Dew point: 60 °F

Location of MarengoLocation

Historic Weather in Marengo — Graph


Marengo temperature yesterday

Maximum temperature yesterday: 61 °F (at 11:53 PM)
Minimum temperature yesterday: 49 °F (at 2:53 AM)
Average temperature yesterday: 52 °F

Past Weeks' High & Low Weather Summary

High71 °F (Nov 17, 2:53 PM)97% (Nov 18, 9:53 AM)30.54 "Hg (Nov 18, 9:53 AM)
Low22 °F (Nov 23, 4:53 AM)29% (Nov 20, 12:53 PM)29.65 "Hg (Nov 18, 1:53 PM)
Average50 °F72%30.19 "Hg
* Reported Nov 16 12:53 AM — Dec 1 12:53 AM, Marengo, Weather by CustomWeather, © 2015

Note: Actual official high and low records may vary slightly from our data, if they occured in-between our weather recording intervals... More about our weather records


Marengo weather history for previous 24 hours

Time TempWeatherWind HumidityBarometerVisibility
12:53 AM
Tue, Dec 1
61 °FLight rain. Fog.7 mph93%29.91 "Hg4 mi
11:53 PM
Mon, Nov 30
61 °FOvercast.7 mph93%29.92 "Hg10 mi
10:53 PM60 °FLight rain. Overcast.9 mph93%29.94 "Hg10 mi
9:53 PM59 °FRain. Fog.9 mph96%29.95 "Hg4 mi
9:00 PM56 °FLight rain. Mostly cloudy.No wind97%29.96 "Hg7 mi
7:53 PM55 °FHeavy rain. Fog.5 mph96%29.97 "Hg2 mi
6:53 PM54 °FLight rain. Fog.3 mph97%29.98 "Hg5 mi
6:04 PM54 °FLight rain. Fog.No wind93%29.99 "Hg3 mi
4:53 PM54 °FLow clouds.No wind93%29.99 "Hg9 mi
3:53 PM54 °FLow clouds.3 mph93%30.00 "Hg8 mi
2:53 PM53 °FLow clouds.No wind96%30.00 "Hg10 mi
1:53 PM53 °FLow clouds.5 mph93%30.00 "Hg9 mi
12:53 PM52 °FLow clouds.5 mph93%30.04 "Hg9 mi
11:53 AM51 °FFog.No wind92%30.06 "Hg4 mi
11:03 AM50 °FFog.No wind96%30.07 "Hg2 mi
10:53 AM50 °FFog.No wind96%30.06 "Hg2 mi
10:03 AM50 °FFog.No wind93%30.07 "Hg2 mi
9:53 AM50 °FFog.3 mph93%30.06 "Hg1 mi
8:53 AM49 °FFog.5 mph97%30.06 "Hg1 mi
8:04 AM49 °FFog.3 mph97%30.04 "Hg1 mi
7:53 AM49 °FFog.3 mph93%30.05 "Hg2 mi
6:53 AM49 °FFog.No wind93%30.03 "Hg6 mi
5:53 AM49 °FLow clouds.3 mph93%30.02 "Hg8 mi
4:53 AM49 °FLow clouds.8 mph93%30.01 "Hg10 mi
3:53 AM49 °FLow clouds.3 mph97%30.03 "Hg10 mi
2:53 AM49 °FLight rain. Fog.7 mph97%30.06 "Hg3 mi
Weather by CustomWeather, © 2015

See weather overviewHow to use our weather pages